This is the latest recevied weather packets stored in our database for station/object DC1MBB-9. If no packets are shown the sender has not sent any weather packets the latest 1 day(s).
| Time | Temp. | Humidity | Pressure | Rain* | Wind** | Luminosity | Snow |
|---|---|---|---|---|---|---|---|
| 1778107966 | 12.78° C | 74% | 953 hPa | - | - | - | - |
| 1778106523 | 12.78° C | 75% | 953 hPa | - | - | - | - |
| 1778104719 | 12.78° C | 75% | 953 hPa | - | - | - | - |
| 1778103276 | 12.78° C | 77% | 953 hPa | - | - | - | - |
| 1778101833 | 12.78° C | 74% | 953 hPa | - | - | - | - |
| 1778101472 | 12.78° C | 74% | 953 hPa | - | - | - | - |
| 1778100390 | 12.78° C | 73% | 952 hPa | - | - | - | - |
| 1778100029 | 12.78° C | 75% | 952 hPa | - | - | - | - |
| 1778097143 | 13.33° C | 74% | 952 hPa | - | - | - | - |
| 1778095700 | 12.78° C | 77% | 952 hPa | - | - | - | - |
| 1778094257 | 13.33° C | 74% | 952 hPa | - | - | - | - |
| 1778093896 | 13.33° C | 74% | 951 hPa | - | - | - | - |
| 1778092453 | 13.89° C | 70% | 951 hPa | - | - | - | - |
| 1778091010 | 13.33° C | 77% | 951 hPa | - | - | - | - |
| 1778089567 | 14.44° C | 79% | 950 hPa | - | - | - | - |
| 1778089206 | 13.89° C | 79% | 950 hPa | - | - | - | - |
| 1778087763 | 14.44° C | 81% | 950 hPa | - | - | - | - |
| 1778086320 | 16.11° C | 10% | - | - | - | - | - |
| 1778084877 | 16.11° C | 10% | - | - | - | - | - |
| 1778084155 | 16.67° C | 96% | 948 hPa | - | - | - | - |
| 1778083073 | 16.11° C | 10% | - | - | - | - | - |
| 1778081630 | 16.11° C | 97% | 948 hPa | - | - | - | - |
| 1778079826 | 16.67° C | 79% | 949 hPa | - | - | - | - |
| 1778079465 | 17.22° C | 77% | 949 hPa | - | - | - | - |
| 1778078383 | 20° C | 60% | 948 hPa | - | - | - | - |
* Rain since midnight (hover to see other rain measurements)
** Current wind speed in m/s (hover to see current wind gust speed)